Lamar, CO

10:23 AM MST on December 10, 2019 (GMT -0700)
Lamar Municipal

Weather History for KLAA - October, 2019

Change the Weather History Date:

Friday, October 18, 2019

  Actual Average Record
Temperature  
Mean Temperature 65 °F 52 °F  
Max Temperature 87 °F 70 °F 95 °F (1991)
Min Temperature 42 °F 34 °F 20 °F (1922)
Degree Days  
Heating Degree Days 0 13  
Month to date heating degree days 201 176  
Since 1 July heating degree days 207 259  
Cooling Degree Days 0 0  
Month to date cooling degree days 1 8  
Year to date cooling degree days 1406 1120  
Growing Degree Days 15 (Base 50)    
Moisture  
Dew Point 27 °F    
Average Humidity 36    
Maximum Humidity 58    
Minimum Humidity 13    
Precipitation  
Precipitation T in 0.04 in 1.18 in (1960)
Month to date precipitation 0.01 0.49  
Year to date precipitation 7.76 14.11  
Sea Level Pressure  
Sea Level Pressure 29.50 in    
Wind  
Wind Speed 13 mph (NW)    
Max Wind Speed 31 mph    
Max Gust Speed 43 mph    
Visibility 10 miles    
Events      
T = Trace of Precipitation, MM = Missing Value Source: NWS Daily Summary

Daily Weather History Graph

Daily Weather History Graph

Search for Another Location

Airport or City:

Astronomy

Oct. 18, 2019 Rise Set
Actual Time 7:02 AM MDT 6:09 PM MDT
Civil Twilight 6:35 AM MDT 6:35 PM MDT
Nautical Twilight 6:04 AM MDT 7:06 PM MDT
Astronomical Twilight 5:34 AM MDT 7:36 PM MDT
Moon 9:31 PM MDT (10/18) 11:33 AM MDT (10/18)
Length of Visible Light 12h 00m
Length of Day
11h 06m
Waning Gibbous, 78% of the Moon is Illuminated
Oct 18
Waning Gibbous
Oct 21
Last Quarter
Oct 27
New
Nov 4
First Quarter
Nov 12
Full

Hourly Weather History & Observations

Time (MDT) Temp. Windchill Dew Point Humidity Pressure Visibility Wind Dir Wind Speed Gust Speed Precip Events Conditions
12:53 AM 61.0 °F - 23.0 °F 23% 29.40 in 10.0 mi SSW 17.3 mph - N/A   Clear
1:53 AM 55.9 °F - 19.9 °F 25% 29.42 in 10.0 mi WSW 12.7 mph - N/A   Clear
2:53 AM 48.0 °F - 19.0 °F 32% 29.44 in 10.0 mi West 11.5 mph - N/A   Clear
3:53 AM 48.0 °F - 19.9 °F 33% 29.44 in 10.0 mi NW 6.9 mph - N/A   Clear
4:53 AM 51.1 °F - 19.9 °F 29% 29.44 in 10.0 mi West 4.6 mph - N/A   Clear
5:53 AM 46.9 °F - 19.9 °F 34% 29.47 in 10.0 mi Calm Calm - N/A   Clear
6:53 AM 46.9 °F - 19.9 °F 34% 29.48 in 10.0 mi Calm Calm - N/A   Clear
7:53 AM 50.0 °F - 21.0 °F 32% 29.48 in 10.0 mi NE 3.5 mph - N/A   Clear
8:53 AM 64.9 °F - 27.0 °F 24% 29.46 in 10.0 mi Variable 4.6 mph - N/A   Clear
9:53 AM 79.0 °F - 30.0 °F 17% 29.42 in 10.0 mi West 21.9 mph 34.5 mph N/A   Clear
10:53 AM 81.0 °F - 28.9 °F 15% 29.41 in 10.0 mi West 15.0 mph 29.9 mph N/A   Clear
11:53 AM 82.9 °F - 28.9 °F 14% 29.41 in 10.0 mi WSW 24.2 mph 32.2 mph N/A   Clear
12:53 PM 84.9 °F - 28.0 °F 13% 29.37 in 10.0 mi West 20.7 mph 29.9 mph N/A   Clear
1:53 PM 84.9 °F - 28.9 °F 13% 29.36 in 10.0 mi West 24.2 mph 33.4 mph N/A   Clear
2:53 PM 84.9 °F - 28.9 °F 13% 29.37 in 10.0 mi West 20.7 mph 32.2 mph N/A   Partly Cloudy
3:53 PM 80.1 °F - 28.9 °F 15% 29.40 in 10.0 mi West 16.1 mph 26.5 mph N/A   Clear
4:35 PM 73.0 °F - 27.0 °F 18% 29.55 in 10.0 mi North 15.0 mph 29.9 mph N/A   Scattered Clouds
4:53 PM 71.1 °F - 28.9 °F 21% 29.48 in 10.0 mi North 23.0 mph 33.4 mph N/A   Partly Cloudy
5:53 PM 66.0 °F - 32.0 °F 28% 29.55 in 10.0 mi NNE 21.9 mph 33.4 mph 0.00 in   Clear
6:53 PM 62.1 °F - 32.0 °F 32% 29.62 in 10.0 mi NNE 31.1 mph 40.3 mph N/A   Scattered Clouds
7:53 PM 59.0 °F - 33.1 °F 38% 29.65 in 10.0 mi NNE 17.3 mph 25.3 mph N/A   Clear
8:53 PM 55.9 °F - 34.0 °F 44% 29.66 in 10.0 mi NNE 12.7 mph - N/A   Clear
9:53 PM 54.0 °F - 34.0 °F 47% 29.68 in 10.0 mi NNE 6.9 mph - N/A   Scattered Clouds
10:53 PM 50.0 °F - 33.1 °F 52% 29.72 in 10.0 mi North 3.5 mph - N/A   Scattered Clouds
11:53 PM 45.0 °F 41.8 °F 30.9 °F 58% 29.75 in 10.0 mi NW 5.8 mph - N/A   Mostly Cloudy